FW5359 Weather Reports


time (UTC)temp
F
wind
direction
speed
knots
gust
knots
rain 1hr
in
rain 24hr
in
rain mn
in
humidity
%
barometer
mb
20260504050255 67 216 1.7 10.4 0.00 0.00 0.00 69 1018.7
20260504045754 67 145 1.7 10.4 0.00 0.00 0.00 68 1018.6
20260504045525 67 115 1.7 7.0 0.00 0.00 0.00 68 1018.5
20260504044754 67 153 2.6 8.7 0.00 0.00 0.00 67 1018.4
20260504044253 67 148 2.6 8.7 0.00 0.00 0.00 67 1018.5
20260504043754 67 157 1.7 7.8 0.00 0.00 0.00 66 1018.5
20260504043255 68 159 1.7 10.4 0.00 0.00 0.00 66 1018.6
20260504043024 68 160 1.7 10.4 0.00 0.00 0.00 65 1018.7
20260504042254 68 153 1.7 7.8 0.00 0.00 0.00 65 1018.6
20260504041754 68 182 0.9 7.8 0.00 0.00 0.00 64 1018.5
20260504041252 68 141 0.9 7.8 0.00 0.00 0.00 64 1018.5
20260504040752 69 161 1.7 8.7 0.00 0.00 0.00 63 1018.6
20260504040252 69 154 1.7 8.7 0.00 0.00 0.00 63 1018.5
20260504035747 69 188 1.7 7.0 0.00 0.00 0.00 63 1018.7
20260504035249 69 152 0.9 6.1 0.00 0.00 0.00 63 1018.6
20260504034751 69 151 0.9 6.1 0.00 0.00 0.00 63 1018.7
20260504034247 68 161 0.9 6.1 0.00 0.00 0.00 63 1018.6
20260504033748 68 173 0.9 6.1 0.00 0.00 0.00 62 1018.6
20260504033251 68 185 0.0 3.5 0.00 0.00 0.00 62 1018.6
20260504032746 68 185 0.9 3.5 0.00 0.00 0.00 61 1018.6
20260504032516 68 185 0.0 3.5 0.00 0.00 0.00 61 1018.6
20260504031745 67 186 0.0 3.5 0.00 0.00 0.00 60 1018.5
20260504031240 67 186 0.0 2.6 0.00 0.00 0.00 60 1018.5
20260504030733 67 186 0.0 2.6 0.00 0.00 0.00 59 1018.5
20260504030227 67 186 0.0 0.0 0.00 0.00 0.00 59 1018.4
20260504025721 67 186 0.0 0.0 0.00 0.00 0.00 59 1018.4
20260504025214 67 186 0.0 0.0 0.00 0.00 0.00 58 1018.4
20260504024709 68 186 0.0 0.0 0.00 0.00 0.00 60 1018.3
20260504024204 68 186 0.0 0.0 0.00 0.00 0.00 57 1018.2
20260504023657 68 186 0.0 0.0 0.00 0.00 0.00 56 1018.2
20260504023151 68 186 0.0 0.0 0.00 0.00 0.00 56 1018.3
20260504022645 69 186 0.0 0.0 0.00 0.00 0.00 57 1018.3
20260504022139 69 186 0.0 0.0 0.00 0.00 0.00 56 1018.3
20260504021633 69 186 0.0 0.0 0.00 0.00 0.00 56 1018.4
20260504021127 70 186 0.0 0.0 0.00 0.00 0.00 55 1018.4
20260504020852 70 186 0.0 0.0 0.00 0.00 0.00 54 1018.4
20260504020115 70 186 0.0 0.0 0.00 0.00 0.00 53 1018.3
20260504015841 71 186 0.0 0.0 0.00 0.00 0.00 52 1018.3
20260504015103 71 186 0.0 0.0 0.00 0.00 0.00 52 1018.2
20260504014557 71 186 0.0 0.0 0.00 0.00 0.00 52 1018.2
20260504014051 71 186 0.0 0.0 0.00 0.00 0.00 51 1018.2
20260504013545 72 186 0.0 0.0 0.00 0.00 0.00 51 1018.1
20260504013039 72 186 0.0 0.0 0.00 0.00 0.00 50 1017.9
20260504012532 72 186 0.0 1.7 0.00 0.00 0.00 50 1017.9
20260504012027 72 186 0.0 1.7 0.00 0.00 0.00 50 1017.8
20260504011521 72 186 0.9 2.6 0.00 0.00 0.00 49 1017.8
20260504011015 73 186 0.0 3.5 0.00 0.00 0.00 49 1017.8
20260504010508 73 186 0.0 3.5 0.00 0.00 0.00 49 1017.8
20260504010003 73 186 0.9 2.6 0.00 0.00 0.00 49 1017.8
20260504005458 73 186 0.9 2.6 0.00 0.00 0.00 49 1017.7
20260504004952 73 186 0.0 2.6 0.00 0.00 0.00 48 1017.8
20260504004446 74 186 0.0 1.7 0.00 0.00 0.00 48 1017.8
20260504003939 74 186 0.0 3.5 0.00 0.00 0.00 48 1017.8
20260504003433 74 186 0.0 3.5 0.00 0.00 0.00 47 1017.9
20260504003157 74 186 0.9 3.5 0.00 0.00 0.00 47 1018.1
20260504002421 74 186 0.9 3.5 0.00 0.00 0.00 46 1018.1
20260504001915 74 186 0.9 4.3 0.00 0.00 0.00 46 1018.1
20260504001409 75 186 0.9 7.8 0.00 0.00 0.00 45 1017.9
20260504000902 75 173 0.9 7.8 0.00 0.00 0.00 45 1018.1
20260504000357 76 210 1.7 5.2 0.00 0.00 0.00 44 1018.1
20260503235851 76 127 1.7 6.1 0.00 0.00 0.00 45 1018.2
20260503235345 76 186 1.7 6.1 0.00 0.00 0.00 44 1018.1
20260503234839 76 168 2.6 7.8 0.00 0.00 0.00 44 1018.3
20260503234603 76 163 1.7 7.8 0.00 0.00 0.00 43 1018.2
20260503233827 76 192 1.7 7.8 0.00 0.00 0.00 43 1018.3
20260503233321 76 173 1.7 7.8 0.00 0.00 0.00 42 1018.4
20260503232815 77 152 1.7 7.0 0.00 0.00 0.00 42 1018.6
20260503232315 77 144 1.7 7.8 0.00 0.00 0.00 41 1018.6
20260503231816 77 130 1.7 7.8 0.00 0.00 0.00 41 1018.6
20260503231315 77 165 1.7 7.0 0.00 0.00 0.00 41 1018.6
20260503230813 77 107 2.6 7.8 0.00 0.00 0.00 41 1018.5
20260503230311 77 161 1.7 7.8 0.00 0.00 0.00 41 1018.5
20260503225811 78 149 1.7 7.8 0.00 0.00 0.00 41 1018.7
20260503225311 78 146 1.7 7.8 0.00 0.00 0.00 40 1018.8
20260503224814 78 163 1.7 6.1 0.00 0.00 0.00 39 1018.6
20260503224539 78 169 1.7 6.1 0.00 0.00 0.00 40 1018.7
20260503223809 77 105 1.7 5.2 0.00 0.00 0.00 40 1018.8
20260503223312 77 81 2.6 7.0 0.00 0.00 0.00 40 1018.7
20260503222811 77 153 3.5 13.0 0.00 0.00 0.00 40 1018.8
20260503222544 77 115 3.5 13.0 0.00 0.00 0.00 40 1018.7
20260503221807 78 91 2.6 11.3 0.00 0.00 0.00 40 1018.9
20260503221539 78 86 2.6 7.8 0.00 0.00 0.00 40 1019.0
20260503221038 78 132 2.6 7.0 0.00 0.00 0.00 40 1019.0
20260503220305 78 200 2.6 8.7 0.00 0.00 0.00 39 1019.2
20260503215805 78 124 2.6 8.7 0.00 0.00 0.00 40 1019.3
20260503215304 78 199 1.7 7.8 0.00 0.00 0.00 40 1019.3
20260503214805 78 232 2.6 7.8 0.00 0.00 0.00 40 1019.4
20260503214535 78 184 2.6 7.8 0.00 0.00 0.00 40 1019.5
20260503214035 78 211 1.7 7.8 0.00 0.00 0.00 40 1019.7
20260503213305 78 190 1.7 7.8 0.00 0.00 0.00 40 1019.8
20260503211803 77 136 2.6 7.8 0.00 0.00 0.00 40 1019.8
20260503210801 77 121 2.6 7.8 0.00 0.00 0.00 40 1020.1
20260503210301 78 165 2.6 7.8 0.00 0.00 0.00 39 1020.0
20260503205800 77 153 2.6 7.8 0.00 0.00 0.00 41 1020.1
20260503204800 78 137 2.6 12.2 0.00 0.00 0.00 40 1020.3
20260503204300 78 152 1.7 7.8 0.00 0.00 0.00 40 1020.5
20260503203800 78 228 1.7 7.8 0.00 0.00 0.00 41 1020.7
20260503203254 78 114 2.6 7.8 0.00 0.00 0.00 41 1020.6
20260503202748 78 80 2.6 7.0 0.00 0.00 0.00 40 1020.7
20260503202512 79 114 1.7 7.0 0.00 0.00 0.00 41 1021.1
20260503201736 79 193 1.7 5.2 0.00 0.00 0.00 40 1021.1
20260503201230 78 228 1.7 7.0 0.00 0.00 0.00 41 1021.3
20260503200724 78 175 1.7 7.0 0.00 0.00 0.00 40 1021.4
20260503200218 77 109 1.7 7.0 0.00 0.00 0.00 39 1021.4
20260503195712 76 105 2.6 7.8 0.00 0.00 0.00 39 1021.6
20260503195205 76 111 2.6 9.6 0.00 0.00 0.00 40 1021.7
20260503194930 76 164 2.6 9.6 0.00 0.00 0.00 41 1021.8
20260503194154 76 154 2.6 8.7 0.00 0.00 0.00 39 1021.9
20260503193919 76 167 3.5 9.6 0.00 0.00 0.00 38 1021.9
20260503193142 76 155 2.6 9.6 0.00 0.00 0.00 41 1022.0
20260503192636 76 90 1.7 6.1 0.00 0.00 0.00 42 1021.9
20260503192130 76 138 2.6 7.8 0.00 0.00 0.00 38 1021.8
20260503191624 76 169 2.6 8.7 0.00 0.00 0.00 41 1022.0
20260503191120 76 147 1.7 8.7 0.00 0.00 0.00 42 1022.1
20260503190620 76 161 1.7 7.0 0.00 0.00 0.00 45 1022.1
20260503190350 76 230 2.6 7.8 0.00 0.00 0.00 46 1022.1
20260503185851 76 142 2.6 7.8 0.00 0.00 0.00 45 1022.3
20260503185120 76 221 2.6 7.0 0.00 0.00 0.00 45 1022.2
20260503184618 76 196 1.7 7.8 0.00 0.00 0.00 44 1022.2
20260503184118 76 158 1.7 7.8 0.00 0.00 0.00 42 1022.5
20260503183618 76 134 1.7 7.8 0.00 0.00 0.00 44 1022.5
20260503183117 75 166 1.7 7.8 0.00 0.00 0.00 46 1022.6
20260503182614 75 216 2.6 7.0 0.00 0.00 0.00 47 1022.7
20260503182114 74 98 3.5 7.0 0.00 0.00 0.00 48 1022.8
20260503181614 74 106 1.7 7.0 0.00 0.00 0.00 46 1022.9
20260503181114 74 121 1.7 7.8 0.00 0.00 0.00 47 1022.9
20260503180615 74 108 2.6 8.7 0.00 0.00 0.00 47 1023.1
20260503180113 74 188 2.6 9.6 0.00 0.00 0.00 46 1023.2
20260503175612 74 159 1.7 9.6 0.00 0.00 0.00 47 1023.3
20260503175346 74 117 2.6 7.8 0.00 0.00 0.00 46 1023.5
20260503174613 74 244 2.6 7.8 0.00 0.00 0.00 48 1023.5
20260503174111 75 146 1.7 7.8 0.00 0.00 0.00 47 1023.8
20260503173605 75 192 1.7 6.1 0.00 0.00 0.00 49 1023.8
20260503173059 75 169 1.7 6.1 0.00 0.00 0.00 49 1024.0
20260503172553 74 146 0.9 7.0 0.00 0.00 0.00 50 1024.0
20260503172046 74 251 1.7 7.0 0.00 0.00 0.00 49 1024.0
20260503171541 74 283 1.7 7.8 0.00 0.00 0.00 48 1024.1
20260503171035 74 163 2.6 7.8 0.00 0.00 0.00 51 1024.2
20260503170528 74 161 1.7 6.1 0.00 0.00 0.00 48 1024.3
20260503150520 70 160 1.7 6.1 0.00 0.00 0.00 57 1024.8
20260503131411 58 78 0.0 0.0 0.00 0.00 0.00 83 1023.9
20260503130904 57 78 0.0 0.0 0.00 0.00 0.00 85 1023.9
20260503130359 56 78 0.0 0.0 0.00 0.00 0.00 88 1023.9
20260503110641 49 78 0.0 0.0 0.00 0.00 0.00 90 1022.7
20260503110135 49 78 0.0 0.0 0.00 0.00 0.00 89 1022.6
20260503081513 51 78 0.0 0.0 0.00 0.00 0.00 88 1022.6
20260503081012 51 78 0.0 0.0 0.00 0.00 0.00 87 1022.5
20260503080513 51 78 0.0 0.0 0.00 0.00 0.00 87 1022.6
20260503080243 51 78 0.0 0.0 0.00 0.00 0.00 87 1022.7
20260503072739 51 78 0.0 0.0 0.00 0.00 0.00 86 1022.9
20260503072009 51 78 0.0 0.0 0.00 0.00 0.00 86 1023.0
20260503071740 52 78 0.0 0.0 0.00 0.00 0.00 86 1023.1
20260503071239 52 78 0.0 0.0 0.00 0.00 0.00 86 1023.2
20260503070737 52 78 0.0 0.0 0.00 0.00 0.00 86 1023.3